Theta_e
347 348 348 347 348 348 345 345 344 345 343 341 340 340 340 340 340 340 339 336 334 336 336 334 332 334 330 328 334 330 326 332 322 331 335 339 338 339 338 342 335 337 331
347 346 345 345 344 344 343 343 343 342 341 338 338 336 335 337 338 337 334 334 332 333 333 333 331 333 333 334 329 332 335 334 334 326 334 333 333 338 340 339 339 335 335
343 342 343 342 342 342 341 341 340 339 338 338 337 336 333 335 334 334 333 333 333 333 334 332 332 331 332 332 329 333 335 336 337 331 326 328 326 331 331 332 333 335 331
341 340 340 340 339 339 339 339 340 338 338 337 336 334 334 334 333 333 334 334 334 335 335 333 333 332 333 330 334 334 336 335 333 333 325 323 323 324 326 322 320 323 321
338 338 337 337 338 338 338 338 339 337 337 335 335 335 334 332 330 335 335 335 336 334 335 333 335 329 323 326 337 335 335 334 328 327 322 322 320 320 320 321 317 317 318
336 333 334 335 336 338 338 338 339 337 337 336 335 333 333 329 308 320 329 337 335 334 333 332 330 324 321 317 319 320 330 329 325 322 324 321 320 320 320 318 316 314 311
333 332 333 334 334 335 336 336 336 339 338 337 335 334 334 330 306 309 317 337 336 336 335 332 328 327 328 331 315 316 315 315 319 328 326 322 319 320 319 318 317 316 313
331 331 332 332 332 334 334 336 337 339 338 337 336 336 335 327 305 306 308 335 336 333 333 334 330 331 330 330 330 331 329 330 329 330 332 329 324 322 321 324 319 316 315
329 330 331 331 332 332 332 334 338 338 338 337 335 334 334 331 304 304 314 334 332 332 332 332 333 331 307 304 330 329 329 324 309 304 306 303 302 305 314 320 318 314 311
329 329 331 331 331 332 336 336 339 339 337 335 333 334 323 332 303 303 316 332 331 331 332 328 308 323 301 303 328 327 326 325 322 318 317 311 313 310 311 324 324 318 314
330 330 330 332 334 336 337 338 338 336 335 334 332 334 333 330 322 303 308 332 329 328 328 327 325 300 300 301 305 327 327 325 315 322 321 319 317 318 318 319 322 321 317
331 329 330 333 331 331 334 336 336 335 334 333 332 333 333 330 313 305 306 310 313 328 328 328 318 299 299 300 308 303 302 314 322 320 318 317 317 316 317 320 319 323 325
330 330 330 332 334 335 334 334 332 335 332 331 332 328 327 327 327 302 303 303 304 325 327 304 297 296 297 303 298 299 303 322 320 317 316 316 318 319 318 319 323 325 325
329 330 331 332 333 333 333 331 331 331 331 327 328 328 326 326 326 327 324 323 306 316 307 314 305 305 302 303 306 313 321 323 321 318 317 318 319 319 317 321 322 321 322
329 330 331 331 333 332 322 320 331 330 324 328 327 327 326 324 324 316 319 325 327 314 314 317 318 315 314 316 317 317 319 323 323 321 318 317 319 320 320 321 320 323 322
329 329 329 329 331 331 331 329 298 299 298 298 299 317 324 307 299 299 298 298 299 301 315 317 316 315 315 316 315 316 317 317 322 321 320 319 319 321 321 322 322 325 323
332 332 329 326 330 328 330 328 327 314 297 296 297 297 307 302 297 296 295 296 296 304 317 320 317 316 317 317 316 317 317 318 322 321 319 320 322 323 320 323 324 323 323
331 311 330 331 331 330 330 329 329 327 324 324 301 304 296 295 295 295 296 302 315 313 321 320 320 318 318 319 318 318 319 319 320 322 320 322 325 323 322 323 324 324 324
331 328 331 330 329 326 330 330 329 328 326 326 323 309 298 292 293 294 295 325 323 320 320 323 324 322 321 322 322 321 322 322 323 324 325 326 325 325 324 325 325 306 311
331 314 318 329 328 328 329 328 329 328 329 328 325 325 319 310 317 319 322 325 325 325 326 324 324 326 327 326 325 325 327 325 326 327 327 328 328 327 326 326 325 323 323
328 328 311 328 328 327 327 326 327 329 328 328 328 324 304 325 325 325 326 328 326 328 328 326 327 327 328 328 328 327 327 327 328 327 327 328 328 327 329 327 325 325 324
329 327 327 328 328 327 328 328 326 325 327 328 330 319 297 323 329 328 328 329 329 329 331 330 329 329 329 330 329 329 328 328 329 330 329 329 329 328 327 326 325 324 323
332 328 324 326 327 315 326 328 327 326 325 325 331 326 324 327 328 329 329 330 331 332 332 330 329 329 332 332 332 331 329 329 330 331 329 329 328 327 327 326 326 326 326
331 326 325 324 326 326 326 327 327 315 326 325 327 327 327 329 330 329 331 332 332 332 332 332 332 330 331 331 331 331 331 333 334 334 333 331 329 325 329 329 328 328 328
319 321 324 325 326 324 326 327 324 328 324 321 326 327 326 327 328 330 330 331 331 331 331 331 331 332 330 318 311 308 293 290 317 302 330 332 331 331 330 329 329 329 329
311 311 310 310 310 311 310 309 309 312 316 315 312 314 312 317 316 317 318 319 320 316 315 311 309 308 308 303 298 289 288 288 298 289 317 329 329 328 327 327 327 326 325
Wind_Speed
15 15 14 13 13 13 11 11 10 9 9 10 9 9 7 6 6 7 4 8 7 5 6 6 8 5 6 8 5 4 5 4 3 3 5 5 7 8 7 7 9 10 8
16 15 14 14 14 13 11 11 11 10 9 9 9 9 8 8 8 7 7 5 6 8 7 6 5 7 5 5 5 7 5 2 4 8 7 4 4 5 8 9 7 8 11
16 16 15 14 13 12 11 10 10 10 9 8 8 7 6 6 6 7 5 6 5 4 5 6 7 8 7 6 6 5 4 3 5 7 7 5 3 3 7 7 6 7 7
16 16 15 13 12 11 10 10 10 10 10 8 6 8 7 8 7 5 4 6 2 4 6 4 5 7 7 4 6 5 6 5 7 6 7 5 3 3 4 7 6 5 8
16 15 13 13 13 12 10 10 8 9 8 8 8 6 6 5 1 3 3 3 5 6 7 1 5 6 13 4 4 6 7 6 7 8 6 5 3 2 5 4 8 9 7
14 15 14 13 13 12 11 7 6 9 9 7 7 6 6 6 7 10 3 4 7 7 7 5 6 6 9 8 7 4 5 9 7 2 6 8 4 5 7 8 10 10 4
14 14 13 13 12 11 12 11 7 6 8 7 7 6 8 8 6 6 5 2 4 4 6 6 5 4 3 7 7 7 9 9 8 5 8 8 6 5 7 10 10 8 6
14 13 13 13 12 11 11 9 7 8 7 8 7 7 8 7 6 4 4 3 4 5 4 7 6 2 7 7 7 8 8 8 7 4 6 9 7 9 8 11 13 11 9
14 13 13 13 12 11 8 8 9 8 8 8 8 9 9 8 5 3 2 4 4 5 7 4 3 5 8 3 8 8 9 7 12 15 17 15 13 11 9 11 12 13 7
14 13 12 12 11 10 5 8 8 9 9 8 10 8 6 9 5 1 5 4 7 6 8 6 8 4 9 4 3 7 8 9 11 13 13 13 12 9 8 7 12 13 10
14 13 11 12 10 8 8 7 9 9 8 8 10 8 7 9 7 3 6 1 3 3 4 4 6 7 7 5 1 1 8 12 11 9 10 8 8 6 5 3 4 9 10
14 14 13 11 9 9 8 9 8 9 9 7 8 6 7 8 7 6 5 8 6 3 2 5 7 7 6 5 4 6 8 13 8 7 8 8 7 7 6 4 7 5 2
14 15 14 10 9 9 8 9 8 7 7 7 6 7 7 6 7 7 7 6 8 2 5 9 12 9 8 4 5 9 7 8 9 8 8 6 8 8 6 4 6 4 2
15 15 13 10 6 8 4 6 7 8 7 7 7 7 7 6 7 7 6 6 7 8 9 6 8 9 8 6 5 4 1 7 8 8 7 7 7 7 6 7 8 4 2
15 13 12 11 7 7 8 7 7 7 4 6 4 6 7 6 4 6 4 4 4 9 9 5 4 6 5 5 5 5 3 6 8 8 8 7 7 7 8 8 5 4 5
14 12 10 10 5 7 7 9 16 13 14 13 9 1 5 8 12 11 10 12 14 11 4 4 6 6 4 5 5 5 4 3 7 9 8 7 7 7 8 9 7 7 8
13 12 10 8 9 7 8 9 8 6 13 13 11 9 9 11 12 11 12 13 10 7 5 4 7 5 4 5 5 5 6 4 7 7 7 7 8 8 7 9 9 7 8
13 11 10 9 10 9 8 8 9 9 8 7 10 8 10 11 11 13 13 10 4 1 6 5 7 6 5 5 6 7 6 7 5 7 8 9 9 7 9 9 10 11 10
11 10 9 8 8 7 8 7 10 9 9 9 8 6 8 9 7 5 6 4 8 7 5 5 4 9 7 7 8 8 8 9 9 8 9 9 9 8 9 9 11 9 6
11 13 9 9 9 8 7 7 10 9 10 10 9 9 8 5 6 7 8 8 9 8 8 8 8 6 8 8 8 10 10 10 10 10 9 9 9 9 10 13 11 9 9
9 10 9 8 10 9 8 8 5 8 9 10 10 11 12 10 10 9 9 9 8 6 10 10 9 8 7 8 10 9 8 8 8 8 7 9 9 10 11 10 10 9 9
7 11 10 10 9 9 9 8 8 7 6 8 11 12 14 11 10 9 8 6 3 6 10 10 10 9 9 9 8 10 11 11 10 11 11 12 12 11 9 9 10 10 11
6 10 12 9 8 7 6 8 8 8 8 8 14 11 10 9 7 10 9 8 5 4 7 6 4 7 10 11 10 10 10 12 11 10 10 10 10 10 11 11 11 11 11
8 12 12 10 9 9 8 7 8 6 9 8 11 10 10 7 6 6 7 8 8 7 5 6 6 6 7 6 6 6 7 7 7 9 13 9 11 12 12 12 12 14 12
9 9 10 12 11 11 4 9 12 4 14 14 7 7 10 8 5 0 2 2 6 6 7 5 5 5 2 23 19 21 16 14 9 8 6 11 13 13 12 11 12 12 14
10 11 11 12 13 14 13 13 14 14 14 13 13 14 13 13 13 13 14 15 14 15 16 11 16 24 21 18 19 15 15 16 14 11 7 10 11 11 12 14 18 13 15
Wind_Direction
156 159 153 151 143 149 156 142 145 150 156 174 182 183 188 160 161 193 234 190 184 190 215 180 211 207 216 204 210 227 225 167 160 114 135 151 146 157 165 134 152 154 148
157 149 150 145 148 148 148 151 154 166 173 179 185 188 178 169 182 190 207 175 193 197 199 206 206 214 217 189 209 232 260 215 179 158 133 115 101 174 152 150 152 145 145
150 148 147 147 146 148 152 154 163 163 178 174 177 166 166 137 188 197 193 192 181 195 190 203 201 196 197 198 210 206 221 229 161 141 131 98 66 62 98 95 103 118 112
148 148 145 147 146 147 152 162 169 165 167 159 157 154 180 193 190 173 197 205 139 164 166 205 193 205 211 216 199 211 195 175 146 156 120 113 87 66 96 116 94 91 111
148 144 146 147 151 149 149 169 150 164 128 158 176 177 143 135 341 239 149 155 182 157 108 116 79 73 60 57 221 177 184 179 144 139 139 129 109 116 125 107 104 103 89
144 148 153 154 154 149 151 142 158 176 148 159 129 149 145 106 63 71 27 185 178 143 145 139 104 138 102 91 78 23 180 136 145 136 147 147 135 117 125 128 124 122 112
154 152 153 153 149 153 154 166 166 151 149 163 154 144 125 113 85 72 29 199 123 162 136 114 110 107 70 114 99 100 105 108 126 154 149 149 134 139 138 131 130 122 110
155 155 154 159 153 158 166 145 172 141 160 157 161 144 144 108 106 97 22 120 128 120 131 144 129 140 87 115 130 124 132 131 152 179 142 141 148 140 146 139 123 106 102
158 156 158 155 155 162 150 138 151 160 165 158 159 159 152 129 127 86 279 162 148 145 128 119 151 150 128 47 135 147 128 95 47 73 85 93 105 111 129 125 131 130 124
153 154 155 152 156 135 152 143 149 163 161 166 154 162 133 129 121 56 295 164 153 153 130 96 42 127 140 149 142 147 139 131 110 103 105 101 109 92 46 150 149 149 142
153 144 147 142 119 130 134 148 164 162 159 163 160 154 157 144 121 114 18 120 119 158 132 148 101 99 131 157 248 180 152 120 122 127 121 121 123 105 92 52 37 140 157
155 147 148 137 151 139 151 150 153 139 154 159 151 137 128 126 110 103 67 39 8 120 111 97 103 109 128 155 181 138 130 130 123 124 126 130 132 123 120 102 124 134 114
153 142 146 143 126 139 158 154 145 151 164 162 165 149 150 135 136 105 90 81 52 66 85 84 103 116 120 107 144 153 163 125 136 134 132 134 147 130 120 107 133 101 11
149 151 153 127 138 153 153 166 132 148 176 174 171 158 141 148 158 159 148 147 139 106 105 95 95 83 74 108 111 122 130 138 145 137 132 131 135 138 149 172 152 164 167
156 157 162 139 167 124 66 18 111 67 101 157 141 167 157 170 169 117 135 161 121 97 118 129 112 104 112 114 101 102 90 143 135 135 135 143 147 171 165 171 181 189 208
157 161 176 150 166 135 145 95 44 66 66 59 33 75 103 116 113 105 99 102 114 127 119 130 123 129 133 124 121 119 122 148 136 143 141 154 157 167 161 164 200 210 206
168 165 171 160 178 157 155 145 136 78 75 56 35 51 93 125 114 114 115 120 134 141 129 162 135 142 131 128 136 139 142 139 142 142 143 156 182 169 170 178 193 204 227
175 178 168 189 162 164 161 157 137 153 153 145 55 64 91 112 120 127 132 126 134 136 147 176 135 150 153 153 149 158 153 156 175 158 165 193 181 168 187 193 205 212 210
179 176 190 204 170 152 153 178 137 153 148 148 132 103 84 76 90 124 188 181 142 155 173 169 177 156 168 183 169 169 170 172 177 176 186 184 178 193 201 209 222 220 208
198 168 219 195 139 164 169 194 148 159 151 135 164 154 142 144 162 183 204 218 169 169 172 157 201 174 172 175 165 186 170 177 182 186 183 188 188 202 208 220 223 201 210
180 152 228 212 160 187 167 170 178 160 155 149 162 142 156 183 175 189 203 189 214 176 164 169 181 186 190 184 168 191 178 184 178 186 199 208 192 215 226 215 219 232 231
179 157 198 226 164 191 168 171 161 182 178 165 125 143 169 223 172 178 200 245 191 176 167 183 168 177 191 197 196 184 193 192 193 198 204 211 207 210 220 229 235 230 235
315 168 182 222 182 173 171 182 169 173 172 172 132 144 179 219 248 167 173 188 210 204 159 191 234 176 177 182 191 196 204 209 197 207 206 224 233 218 220 229 233 237 242
340 354 167 205 198 170 180 202 177 178 166 163 141 147 177 203 256 145 163 166 174 189 202 191 209 228 172 190 204 226 241 230 214 209 218 215 217 232 245 246 237 237 244
30 35 48 44 41 32 72 30 27 153 50 25 59 112 160 177 193 288 185 146 171 174 175 191 205 202 330 46 34 24 12 4 322 336 286 232 246 261 262 248 241 258 265
57 59 61 62 60 58 55 54 46 44 52 49 47 51 48 53 41 34 33 28 43 41 62 57 45 43 47 43 33 23 16 18 13 357 332 286 279 266 249 248 256 262 263